IRNSS-1E

Last updated on Thu Jul 03 2025 00:02:47 GMT+0000 (Coordinated Universal Time)

1 41241U 16003A 25183.62291850 -.00000312 00000+0 00000+0 0 9999 2 41241 32.4606 64.8245 0018840 178.4193 13.6214 1.00276603 34579
UTC large
Height (km)
Speed (km/s)
/
Latitude / Longitude
Inclination (degrees)
Orbital Period (minutes)
Azimuth
Elevation
Range (km)
Doppler Factor

Next 0 passes for location: London (51.5072 / 0.1276)

Sorry there are no passes over London.